Location: *
(50.6089°N, 2.2719°E)
Time: 11:34:44
(UTC+00:00)

STARLINK-38 - Pass Details

Date: 18 October 2019
Orbit: 548 x 551 km, 53.0° (Epoch: 17 November)

Event Time Altitude Azimuth Distance (km) Brightness Sun altitude
Rises 18:52:15 0° 270° (W) 2,717 8.7 -19.5°
Reaches altitude 10° 18:54:30 10° 274° (W) 1,824 7.5 -19.9°
Maximum altitude 18:58:36 62° 356° (N) 623 3.8 -20.5°
Enters shadow 18:59:24 50° 45° (NE) 705 3.9 -20.7°
